Wind_Speed
26 27 28 28 28 27 26 26 23 19 18 20 20 18 19 21 20 19 17 16 16 18 20 19 17 18 21 25 31 38 37 36 37 36 37 38 37 35 32 29 28 28 27 26 25 25 24 24 23 23 23 22 22 21 20 19 18 18 17 17 16 15 15
24 26 27 28 29 27 25 26 25 22 21 22 21 19 18 20 20 20 19 17 17 17 19 21 19 18 19 24 30 37 38 37 36 34 35 36 36 35 33 32 31 30 30 29 27 26 25 25 25 24 24 24 23 22 21 20 20 20 20 19 18 18 17
22 23 26 26 29 30 26 25 26 26 24 23 22 19 17 19 21 21 21 19 18 17 17 19 19 17 17 23 30 37 40 37 35 33 32 33 35 35 34 33 33 31 30 30 29 28 27 26 26 25 25 25 24 23 22 21 21 21 21 20 19 19 18
21 21 25 25 27 30 28 25 27 27 24 20 20 19 18 19 21 21 20 19 18 18 17 18 18 16 15 21 30 37 39 36 34 32 31 31 32 32 33 32 31 30 30 29 29 28 28 27 27 27 26 26 25 24 23 23 23 22 21 20 20 19 19
24 21 24 25 24 26 26 27 26 24 21 17 16 17 17 18 19 19 19 17 15 15 16 18 18 16 14 19 29 35 37 35 33 32 30 30 30 30 31 30 29 30 30 30 30 29 29 30 29 29 28 26 26 25 24 24 24 23 23 23 23 22 21
27 25 25 25 24 24 25 25 24 21 19 17 16 17 16 17 18 17 18 17 13 11 13 16 18 16 14 17 28 32 34 33 32 33 32 31 31 29 30 30 29 29 28 29 30 30 30 31 30 30 29 28 27 26 26 25 24 24 24 25 25 24 23
31 30 27 26 25 24 23 21 21 21 18 15 17 18 17 18 18 17 17 17 13 10 10 13 16 16 12 14 27 30 32 33 32 33 34 34 33 32 31 31 29 28 27 26 26 27 27 28 29 29 29 28 28 28 27 26 25 25 26 27 27 26 25
31 32 29 27 26 24 22 19 20 21 19 16 16 18 19 18 17 16 16 15 13 11 9 9 13 14 10 9 22 28 32 36 36 36 37 37 36 35 32 31 29 28 27 26 24 23 23 25 26 27 27 27 28 28 28 27 26 26 27 28 29 28 27
30 32 31 28 25 24 24 23 22 22 22 20 18 17 18 17 15 16 15 12 11 12 12 9 9 11 10 6 15 24 26 30 34 37 40 41 39 36 33 31 31 30 29 27 25 23 23 23 24 25 25 25 25 26 25 25 25 27 28 29 30 29 28
30 32 32 30 27 26 26 27 26 25 24 23 21 18 17 16 14 15 15 12 11 11 14 13 9 8 9 7 9 19 19 20 25 30 36 40 39 35 33 32 32 32 30 29 28 27 26 25 25 25 25 23 23 23 23 22 22 22 24 26 29 30 29
33 32 31 32 31 29 28 29 29 28 27 26 24 21 18 17 15 14 14 14 11 9 14 17 13 8 8 7 8 16 18 18 21 24 30 34 35 34 35 35 35 35 34 33 32 31 30 29 28 27 27 25 23 23 24 23 21 20 21 24 26 28 29
36 34 32 32 32 31 30 30 30 30 30 29 27 24 21 19 16 14 14 12 10 8 11 16 17 13 9 7 8 14 17 17 18 20 24 27 27 29 33 36 38 38 36 35 34 33 33 32 31 30 30 28 26 26 26 26 25 24 24 24 25 26 26
39 38 36 34 35 34 32 32 33 33 33 32 30 27 24 22 19 17 15 12 10 9 10 13 16 16 13 10 8 9 13 14 14 16 18 19 19 21 24 30 37 40 39 37 36 35 34 33 32 33 34 32 30 29 30 30 29 28 28 27 26 25 25
39 41 39 37 37 37 35 34 35 35 34 34 32 29 26 24 21 20 17 15 13 11 10 11 14 15 15 13 11 8 8 9 10 11 11 13 15 15 16 20 27 33 36 35 34 34 33 31 30 30 34 37 36 34 34 34 33 32 31 30 29 28 27
37 41 41 40 40 40 37 36 37 36 36 35 33 31 29 26 23 22 20 17 16 14 11 12 14 14 14 14 13 11 8 6 7 8 6 7 10 12 13 14 17 21 25 27 28 28 28 29 28 27 28 34 38 39 39 38 36 36 35 33 33 31 29
32 38 42 42 42 42 41 38 38 38 37 36 34 32 31 28 25 24 23 21 19 17 15 14 14 14 15 15 14 14 12 10 9 9 5 3 5 8 10 12 13 15 17 19 21 24 26 26 26 26 26 29 33 38 41 42 41 40 38 36 35 33 30
28 32 38 41 42 42 42 41 39 38 37 37 35 34 33 31 27 25 26 25 23 20 17 16 16 16 16 17 17 17 16 14 13 11 9 6 5 6 7 8 9 9 9 10 13 16 19 21 22 24 26 28 30 34 38 42 44 44 41 38 36 34 34
26 28 31 36 39 40 40 41 40 39 38 37 36 36 36 35 31 27 27 28 27 24 21 21 21 21 20 20 20 20 19 18 16 15 13 12 10 9 8 8 8 8 8 8 9 11 14 16 17 19 22 26 29 32 35 38 42 44 44 43 38 37 41
26 26 27 30 33 36 38 40 41 41 39 38 37 37 37 37 35 31 29 30 30 28 26 25 25 24 23 24 24 22 21 20 19 18 16 16 15 13 11 11 11 11 11 11 12 13 14 14 14 17 19 23 28 31 33 37 41 43 44 45 43 41 43
24 25 25 26 28 31 34 38 40 42 42 40 38 36 35 37 37 35 32 32 33 31 29 28 27 25 24 26 25 23 23 21 21 20 18 18 18 16 14 13 14 14 14 13 13 15 15 14 14 15 16 18 23 27 30 33 39 43 43 43 43 42 43
22 23 23 24 25 27 29 32 36 41 43 42 39 36 34 34 35 36 35 35 35 34 32 32 32 27 24 26 25 23 23 23 21 20 19 19 19 17 16 16 17 17 16 15 14 14 14 14 15 14 13 14 18 22 24 26 30 37 40 40 40 40 39
20 21 21 22 23 25 27 28 30 35 40 43 41 37 35 34 34 34 35 35 36 36 34 35 36 30 21 22 24 22 23 23 21 19 19 19 20 19 19 20 21 21 21 19 17 17 16 15 14 13 13 14 15 16 17 17 16 20 26 30 31 31 31
19 20 20 21 22 23 25 27 28 30 35 40 42 39 36 35 34 34 33 34 36 38 37 36 37 31 20 17 19 21 23 24 24 22 21 21 22 21 20 20 20 22 23 22 22 22 22 20 18 15 14 16 17 16 14 11 9 9 12 15 19 20 21
19 20 21 21 22 23 25 27 29 29 31 36 40 39 37 36 35 34 34 33 34 37 37 37 38 36 29 20 15 17 21 24 26 26 24 24 24 24 24 23 21 19 18 18 18 19 18 17 18 17 16 16 17 16 16 14 13 12 10 10 13 15 14
19 21 21 22 23 24 25 27 29 30 31 34 38 39 38 37 37 36 35 34 34 35 36 35 35 36 36 29 19 15 18 23 27 29 28 26 26 27 28 28 27 24 22 20 19 18 17 18 19 19 18 19 18 16 15 15 14 14 14 15 16 17 15
18 19 21 22 23 24 25 26 28 30 31 33 36 39 39 38 37 37 36 34 34 34 34 34 33 31 31 30 24 19 19 20 23 26 26 25 24 25 28 29 29 29 29 28 27 26 26 25 24 23 23 24 24 22 19 17 14 13 14 14 15 16 17
17 17 18 20 22 24 25 26 27 30 31 32 34 37 40 40 39 38 36 34 33 32 32 31 31 29 27 26 24 23 21 19 17 19 20 20 20 22 24 26 27 28 28 27 27 28 27 26 25 25 24 25 25 23 19 17 16 14 13 12 13 15 16
16 16 17 18 20 22 24 25 26 28 31 32 33 35 38 41 41 40 38 36 34 32 32 31 30 28 26 25 24 24 22 20 18 17 16 16 17 19 22 24 25 24 21 20 20 23 25 25 25 24 24 25 25 23 20 20 19 17 16 16 15 16 16
15 16 17 18 19 21 23 24 25 26 29 31 32 33 34 38 40 41 40 39 37 35 34 33 32 30 28 26 26 25 23 21 20 19 17 17 18 19 21 24 25 24 20 17 16 16 19 22 22 21 20 20 21 21 22 22 21 19 19 19 18 17 17
16 16 17 18 19 20 22 23 24 25 26 28 30 31 31 33 37 39 39 40 39 38 37 36 35 34 32 30 29 28 27 26 25 24 23 24 24 23 22 24 25 24 21 19 17 14 14 16 18 17 17 17 17 18 19 20 20 20 20 20 20 20 20
16 15 16 17 18 19 21 23 24 24 24 24 27 29 30 30 33 35 37 37 36 37 39 40 38 36 36 34 33 32 31 30 30 30 29 27 26 24 23 23 24 23 21 18 17 16 16 17 18 19 19 19 19 19 19 19 20 21 21 22 23 23 24
14 14 15 15 16 18 21 22 24 24 24 24 25 27 29 30 31 31 33 34 33 32 35 38 38 37 36 36 35 33 32 32 32 33 31 29 26 24 23 22 22 22 20 18 18 18 18 18 19 20 20 21 21 21 21 21 21 22 23 24 25 26 27
12 13 13 13 14 17 21 22 23 24 25 24 24 27 30 32 31 31 33 34 33 31 32 35 37 36 36 36 35 33 32 31 31 31 31 29 26 24 23 22 21 20 20 19 19 20 20 20 21 21 22 22 23 23 23 23 24 25 26 27 28 29 30
11 11 11 11 12 15 18 21 22 23 25 25 27 29 30 31 31 32 34 36 36 33 31 32 32 31 30 30 30 29 29 29 29 30 29 27 26 24 23 22 22 21 20 20 20 21 22 23 24 24 25 25 26 26 27 28 28 28 29 29 30 31 32
9 8 8 10 12 12 15 19 22 23 25 29 31 31 29 29 31 31 32 34 36 34 30 29 28 26 25 25 25 26 27 28 29 28 27 26 25 25 24 23 23 23 22 22 22 22 23 24 25 27 28 28 29 30 30 31 31 32 32 33 33 34 35
7 6 7 8 10 10 11 17 22 22 22 27 30 28 27 30 32 31 29 28 31 33 32 29 27 24 23 22 22 23 24 25 26 26 26 26 25 25 25 24 24 25 25 25 25 25 25 25 26 27 28 29 31 32 32 33 34 34 34 35 36 36 37
4 4 5 7 8 7 7 12 17 19 20 25 28 26 24 26 27 26 24 22 24 28 29 27 26 24 22 21 21 22 22 23 23 24 24 25 25 25 25 25 25 25 25 25 26 26 26 25 25 26 27 28 29 31 32 33 34 34 35 35 35 36 36
Wind_Direction
208 210 215 221 219 215 214 213 218 227 231 233 230 226 228 229 233 240 245 250 248 249 254 257 265 263 247 235 219 209 207 205 202 201 200 199 201 201 201 199 198 199 197 194 196 201 201 198 195 193 192 193 195 198 200 200 199 195 193 194 197 199 200
206 209 215 223 222 218 214 211 216 225 229 233 233 230 230 230 234 242 248 252 250 251 254 255 267 272 249 230 217 208 207 206 204 203 203 204 203 202 202 200 198 199 198 195 196 200 203 202 199 197 196 196 197 198 201 203 203 202 199 196 197 199 201
205 207 214 220 223 222 219 212 212 216 221 226 227 229 231 229 232 238 245 252 253 252 256 256 267 278 255 227 215 208 207 208 205 202 204 208 208 206 207 205 202 200 199 199 198 199 202 205 205 204 201 199 199 199 203 206 208 208 206 202 201 202 202
211 210 214 216 219 223 223 219 216 215 217 217 215 222 229 228 232 240 244 252 258 256 258 256 262 278 263 229 214 207 205 207 205 202 204 209 211 211 212 212 209 204 201 201 202 202 203 206 209 209 207 203 202 202 205 209 211 212 211 208 207 208 208
217 216 218 219 218 219 220 222 223 221 219 217 210 214 224 226 233 244 245 248 260 262 261 257 257 274 271 229 210 203 201 204 205 203 203 207 210 212 213 215 216 211 206 204 205 206 207 207 210 211 211 208 205 204 206 210 213 214 215 213 209 209 211
216 219 220 222 221 218 217 221 224 221 219 221 214 211 217 220 227 241 243 240 252 263 265 260 254 269 276 225 203 199 199 202 206 205 204 205 207 208 210 213 217 216 213 210 209 210 211 212 213 213 212 211 209 206 207 210 213 215 217 217 214 211 211
213 219 221 222 222 219 220 221 222 222 222 224 222 220 219 217 222 234 237 235 243 254 265 265 253 263 278 218 199 200 202 204 208 208 207 206 206 206 207 209 214 217 219 218 216 216 217 218 219 219 217 215 214 212 210 211 214 216 219 220 218 215 213
215 217 219 221 219 218 222 225 224 226 227 227 228 228 224 220 222 230 234 235 242 246 254 270 258 257 275 223 196 199 205 208 210 211 210 208 206 206 206 206 209 214 219 221 220 220 223 224 226 227 225 223 223 221 217 215 215 217 220 223 223 220 217
223 218 217 218 217 217 223 228 229 231 230 227 228 230 226 222 226 235 240 242 248 250 247 260 265 255 270 257 197 197 205 210 212 215 213 208 205 206 206 206 208 212 216 220 221 222 224 226 230 232 231 228 228 229 227 224 222 221 221 224 226 225 222
228 224 218 216 217 218 221 226 229 233 233 228 226 229 226 221 225 237 247 247 248 255 248 250 261 253 265 279 202 194 198 199 205 212 208 203 202 204 207 208 210 211 214 216 220 222 223 225 229 233 234 229 224 226 228 229 229 228 228 228 229 228 226
228 228 221 216 218 221 222 224 227 231 234 232 230 230 227 222 221 228 238 238 236 246 247 247 252 246 257 276 215 194 194 191 194 200 198 198 203 207 209 211 211 212 213 215 218 220 222 224 226 230 233 229 223 222 226 228 229 231 233 234 234 232 230
226 229 223 217 219 224 226 227 229 231 235 237 235 231 227 223 217 212 217 219 214 223 238 243 248 245 243 255 227 199 195 192 190 192 195 198 204 210 213 214 213 214 215 216 219 221 224 226 228 230 233 231 226 223 225 227 227 228 231 234 237 237 235
226 229 227 220 218 221 225 229 232 233 235 237 236 230 226 222 213 203 205 206 200 210 228 231 239 245 241 240 236 207 197 197 193 193 199 201 202 206 209 211 212 215 217 219 222 225 229 231 231 232 233 233 231 229 228 229 229 229 231 231 234 238 239
226 229 229 225 221 221 222 226 231 233 234 236 235 229 224 220 211 203 205 206 198 202 222 222 223 235 241 240 239 225 204 199 196 197 207 212 210 208 204 202 205 211 216 221 224 227 231 233 234 234 232 230 231 232 232 232 232 232 233 232 232 234 236
226 227 228 227 226 224 223 224 228 231 233 234 234 229 224 219 212 207 206 205 198 198 215 222 217 224 236 243 244 239 228 213 208 211 214 214 214 212 207 204 205 210 217 223 228 230 233 235 237 237 233 229 229 232 233 234 235 235 235 235 234 234 235
228 227 227 229 228 227 227 226 227 230 232 234 232 229 226 221 216 212 209 207 205 204 212 221 219 218 226 238 244 242 237 231 226 228 225 200 201 205 204 206 209 214 221 226 230 232 233 235 237 238 237 234 232 233 234 234 235 235 234 235 237 237 237
235 229 228 230 230 230 229 228 227 229 232 234 233 229 227 225 220 215 212 212 213 212 215 220 222 220 222 231 238 239 236 232 230 232 230 212 196 191 186 189 196 204 217 224 225 226 229 233 237 238 239 239 238 237 236 235 235 236 234 235 237 236 233
244 237 232 231 232 233 232 230 228 228 231 234 234 230 227 226 224 218 215 217 219 219 218 220 223 222 218 221 228 233 234 232 229 232 234 230 224 216 206 202 209 221 235 238 232 230 233 237 242 245 244 242 241 239 235 233 233 233 232 232 233 232 230
247 246 241 236 234 234 234 233 230 229 230 234 234 231 228 227 227 223 218 219 223 224 224 228 232 231 225 219 220 222 225 227 227 229 235 237 237 234 228 228 234 237 239 242 244 245 246 247 250 252 249 244 241 239 235 233 230 228 227 228 229 231 233
247 249 249 245 239 236 236 236 233 230 230 232 233 233 232 231 230 227 222 223 227 229 232 235 237 239 234 225 220 217 216 219 221 223 229 236 239 239 237 236 238 238 239 243 248 253 256 256 254 254 254 250 243 239 236 233 229 226 225 226 226 229 233
244 248 251 251 247 242 238 237 236 232 229 228 229 231 233 234 235 232 228 227 230 234 237 236 237 244 238 221 215 217 218 217 218 218 222 232 239 241 240 241 242 243 244 247 252 256 258 258 258 261 267 265 256 249 245 241 234 228 227 228 228 226 228
240 245 251 252 251 249 244 240 237 233 228 226 227 230 232 235 238 237 234 231 230 235 238 238 241 249 237 208 207 219 226 226 224 221 221 228 235 239 242 246 248 248 248 248 250 252 254 257 262 266 270 270 270 270 264 257 245 229 223 224 226 225 225
241 244 249 251 252 252 248 242 238 235 230 226 225 228 231 233 237 239 238 235 232 234 238 240 244 247 235 206 205 219 232 238 236 231 230 232 236 241 246 248 249 250 250 248 247 249 251 255 260 262 266 270 274 277 275 274 273 252 231 225 223 222 223
246 247 248 250 250 251 249 244 239 236 232 227 225 227 230 232 235 238 240 239 236 236 239 241 246 247 244 238 226 223 233 242 241 238 240 241 242 245 248 250 252 253 249 245 248 251 250 252 257 259 262 267 270 269 270 271 269 260 250 241 229 220 215
246 247 247 248 248 248 248 246 241 237 232 227 226 228 229 230 231 234 237 239 240 240 242 244 248 251 251 253 253 243 237 238 238 239 243 246 248 248 249 252 256 256 253 252 259 262 258 257 260 259 255 255 256 258 261 261 257 249 242 236 227 222 225
247 249 249 249 248 247 246 245 242 238 233 228 227 228 229 229 230 232 234 237 239 241 244 246 248 252 254 253 252 250 244 238 235 236 239 243 248 250 252 255 257 259 260 262 263 262 259 258 257 255 251 249 249 253 256 256 252 245 237 231 231 239 248
250 252 253 251 249 248 246 244 241 238 234 230 227 228 229 231 231 231 231 233 236 239 242 244 244 247 252 249 244 244 250 253 248 242 240 242 245 247 251 255 258 258 260 261 259 257 257 255 252 250 248 246 247 250 251 250 247 242 239 239 244 252 257
252 253 255 254 252 250 248 244 240 237 234 231 229 228 230 231 232 232 232 233 235 237 239 240 240 242 247 248 245 244 251 259 259 251 244 245 250 250 248 251 258 261 259 256 254 255 256 255 252 250 247 244 242 239 236 238 240 241 246 252 253 252 254
253 253 256 257 255 252 249 244 240 237 234 232 230 229 229 230 231 232 233 234 236 237 236 236 237 238 241 244 246 248 250 253 251 246 248 262 273 271 258 252 255 260 259 255 254 255 254 251 247 244 241 237 233 229 228 232 236 238 243 250 253 252 252
252 254 257 260 259 256 250 243 239 235 232 232 232 230 229 230 232 233 234 235 237 238 236 233 233 236 239 243 246 248 250 250 248 247 256 272 281 278 267 257 254 256 257 256 255 255 249 242 239 237 237 236 236 234 234 238 242 245 247 251 252 251 250
255 258 261 261 256 251 246 241 235 230 227 226 228 228 227 228 230 232 234 236 238 237 233 231 232 235 239 242 246 249 251 251 251 252 259 271 276 270 261 255 251 250 251 250 249 249 245 242 242 243 245 248 250 250 249 248 249 251 253 254 256 256 256
257 261 262 260 254 247 242 235 230 225 219 216 219 223 224 224 225 228 232 235 236 233 228 228 231 236 239 240 244 249 251 251 252 254 259 267 267 259 252 248 244 240 240 239 238 240 242 242 243 245 247 250 252 253 253 252 250 250 251 252 254 256 257
254 256 259 264 265 254 243 234 228 222 215 211 213 214 215 217 219 222 227 231 232 231 230 231 235 239 240 240 242 246 248 249 251 254 259 262 259 250 245 245 241 236 236 235 233 234 237 239 241 243 243 245 247 248 250 250 250 251 251 252 253 254 255
254 257 263 275 279 264 245 234 227 219 212 210 207 201 200 206 212 215 221 226 227 228 229 231 234 237 238 237 237 239 242 245 248 250 252 252 247 241 239 241 242 241 240 239 237 237 237 238 241 244 245 246 247 248 250 251 252 253 254 255 256 256 257
259 263 272 283 289 273 245 230 225 222 216 210 204 197 195 200 202 202 204 210 214 216 217 219 223 227 228 228 228 230 234 238 240 241 241 239 236 234 235 238 241 244 245 245 244 243 241 241 242 244 247 249 251 253 254 254 255 255 256 256 257 258 259
263 269 273 282 289 279 247 230 229 226 213 195 189 189 192 195 196 195 195 196 199 203 207 209 211 213 214 216 218 222 226 228 228 228 229 229 229 231 234 236 240 243 246 248 249 249 248 247 246 246 247 249 251 254 256 257 258 259 259 260 260 260 260
252 270 270 273 280 276 248 230 227 222 206 188 182 182 182 181 184 188 189 184 183 188 194 197 198 201 205 209 213 216 219 220 221 223 225 228 230 233 235 238 241 244 248 251 253 254 255 255 254 254 253 253 253 255 256 257 259 261 262 263 264 264 264
Height
5834 5835 5836 5837 5839 5841 5842 5844 5846 5847 5848 5848 5849 5850 5852 5854 5855 5856 5857 5858 5859 5860 5859 5859 5860 5860 5861 5863 5865 5868 5872 5874 5876 5879 5882 5885 5888 5891 5894 5897 5899 5901 5903 5905 5907 5908 5910 5911 5912 5913 5915 5917 5918 5920 5922 5923 5924 5926 5927 5928 5930 5931 5932
5833 5835 5836 5836 5837 5839 5840 5842 5844 5845 5846 5847 5848 5849 5851 5853 5854 5855 5855 5857 5858 5859 5859 5858 5858 5858 5858 5860 5862 5865 5868 5872 5875 5879 5882 5885 5887 5889 5892 5894 5896 5898 5900 5903 5904 5906 5908 5910 5911 5912 5913 5914 5916 5918 5920 5922 5923 5924 5925 5926 5928 5929 5930
5832 5834 5834 5835 5836 5837 5839 5840 5841 5842 5844 5845 5846 5848 5850 5851 5852 5853 5854 5855 5856 5857 5858 5858 5857 5857 5856 5857 5860 5862 5866 5870 5874 5878 5882 5884 5886 5888 5890 5892 5894 5896 5899 5901 5903 5905 5906 5908 5909 5910 5911 5912 5914 5916 5918 5920 5921 5923 5924 5925 5927 5928 5929
5830 5832 5832 5833 5834 5836 5838 5839 5838 5839 5841 5843 5844 5846 5848 5850 5851 5852 5853 5855 5855 5856 5856 5856 5856 5856 5855 5855 5857 5861 5865 5869 5872 5876 5881 5884 5886 5887 5889 5891 5893 5896 5898 5900 5902 5903 5904 5906 5907 5908 5910 5911 5913 5914 5916 5918 5919 5921 5923 5925 5926 5927 5928
5829 5831 5832 5833 5834 5835 5837 5837 5838 5839 5841 5841 5842 5844 5846 5849 5850 5851 5852 5854 5854 5854 5855 5855 5855 5855 5854 5853 5855 5859 5864 5867 5871 5874 5878 5882 5885 5887 5888 5890 5892 5894 5896 5898 5899 5901 5902 5903 5904 5906 5908 5910 5911 5912 5914 5916 5918 5920 5921 5923 5923 5924 5926
5827 5829 5830 5832 5834 5834 5834 5836 5837 5838 5840 5840 5841 5843 5845 5847 5849 5850 5851 5852 5853 5853 5854 5854 5854 5854 5853 5852 5854 5858 5862 5865 5869 5872 5876 5879 5882 5885 5887 5888 5890 5892 5894 5896 5897 5898 5900 5901 5902 5904 5906 5907 5909 5910 5912 5914 5915 5917 5919 5920 5921 5922 5923
5825 5827 5829 5830 5832 5832 5832 5834 5836 5837 5838 5839 5840 5842 5844 5845 5847 5848 5849 5851 5852 5853 5853 5853 5853 5853 5853 5852 5854 5857 5860 5863 5866 5870 5873 5876 5879 5882 5884 5886 5888 5890 5892 5894 5896 5897 5898 5900 5902 5903 5905 5906 5907 5908 5909 5911 5913 5915 5916 5917 5918 5920 5921
5822 5825 5827 5828 5829 5830 5831 5833 5835 5836 5837 5839 5840 5842 5843 5845 5846 5846 5847 5849 5851 5851 5852 5852 5852 5852 5853 5853 5854 5856 5858 5860 5863 5866 5869 5873 5875 5879 5882 5884 5887 5889 5890 5892 5895 5896 5898 5899 5901 5902 5904 5906 5907 5907 5908 5909 5911 5912 5913 5915 5916 5918 5919
5821 5822 5824 5826 5827 5828 5830 5832 5834 5835 5836 5838 5840 5841 5842 5844 5845 5846 5847 5848 5849 5850 5851 5851 5851 5852 5852 5852 5853 5855 5857 5858 5860 5862 5865 5869 5872 5876 5880 5883 5884 5886 5888 5891 5893 5894 5896 5897 5899 5901 5902 5904 5906 5907 5909 5910 5910 5910 5911 5912 5914 5916 5917
5820 5821 5823 5824 5825 5827 5828 5830 5832 5833 5835 5837 5839 5840 5841 5843 5844 5846 5847 5848 5848 5849 5850 5850 5851 5851 5852 5852 5853 5854 5855 5856 5858 5859 5862 5865 5870 5874 5877 5880 5882 5884 5886 5888 5890 5891 5893 5895 5897 5898 5900 5902 5904 5906 5907 5908 5909 5910 5911 5912 5912 5913 5914
5818 5820 5821 5822 5823 5825 5826 5828 5830 5831 5833 5835 5837 5839 5840 5842 5843 5845 5846 5846 5847 5848 5848 5849 5850 5851 5851 5852 5852 5853 5854 5855 5856 5859 5861 5864 5868 5871 5874 5876 5878 5880 5882 5884 5886 5888 5890 5892 5894 5896 5898 5900 5902 5904 5905 5905 5907 5909 5910 5910 5911 5911 5912
5816 5817 5818 5820 5821 5823 5824 5826 5828 5830 5831 5833 5835 5837 5839 5840 5842 5844 5845 5845 5846 5846 5847 5848 5849 5850 5851 5852 5851 5851 5852 5854 5856 5858 5860 5863 5865 5868 5870 5872 5875 5877 5879 5881 5883 5885 5887 5889 5892 5894 5896 5898 5900 5901 5902 5902 5904 5905 5906 5907 5909 5909 5910
5813 5814 5816 5817 5819 5820 5822 5824 5826 5828 5830 5831 5833 5835 5837 5839 5841 5843 5843 5844 5845 5846 5846 5846 5848 5849 5851 5851 5851 5851 5851 5853 5855 5857 5859 5861 5863 5864 5866 5868 5871 5873 5876 5878 5881 5883 5885 5887 5890 5891 5893 5895 5897 5898 5899 5900 5901 5901 5902 5904 5906 5907 5908
5810 5812 5814 5815 5816 5818 5820 5822 5824 5826 5828 5829 5831 5833 5835 5837 5840 5841 5842 5843 5844 5845 5845 5845 5846 5848 5850 5851 5852 5851 5851 5852 5853 5856 5858 5860 5861 5862 5863 5865 5868 5871 5874 5877 5879 5882 5884 5885 5887 5888 5890 5891 5893 5894 5896 5896 5898 5898 5899 5900 5902 5904 5906
5808 5809 5811 5813 5814 5816 5818 5820 5822 5824 5826 5827 5829 5831 5833 5836 5838 5840 5841 5842 5843 5844 5844 5845 5846 5847 5849 5850 5851 5851 5852 5852 5853 5854 5856 5858 5859 5860 5862 5864 5866 5869 5872 5874 5877 5879 5880 5882 5883 5884 5886 5887 5888 5889 5891 5893 5894 5895 5895 5897 5898 5900 5902
5806 5807 5809 5811 5812 5814 5815 5818 5820 5822 5824 5825 5827 5829 5831 5834 5836 5838 5839 5841 5842 5843 5844 5845 5845 5847 5848 5849 5850 5851 5851 5852 5853 5854 5855 5857 5858 5859 5860 5862 5864 5867 5869 5871 5872 5874 5876 5877 5879 5880 5881 5883 5884 5885 5887 5889 5890 5890 5892 5894 5896 5898 5901
5803 5805 5807 5809 5811 5812 5813 5816 5818 5820 5821 5823 5825 5827 5829 5831 5834 5836 5838 5839 5841 5842 5843 5844 5845 5846 5847 5849 5849 5850 5851 5852 5852 5853 5854 5856 5857 5858 5859 5861 5863 5865 5866 5868 5869 5871 5872 5873 5875 5876 5878 5879 5880 5881 5882 5883 5885 5887 5888 5891 5894 5897 5898
5800 5802 5804 5806 5808 5810 5812 5814 5816 5818 5819 5820 5822 5824 5826 5828 5831 5834 5836 5837 5839 5841 5842 5842 5843 5843 5844 5845 5847 5849 5850 5851 5852 5853 5853 5855 5857 5858 5859 5861 5862 5863 5864 5866 5867 5868 5869 5871 5872 5873 5874 5875 5875 5876 5877 5878 5881 5883 5884 5886 5890 5893 5892
5797 5799 5801 5803 5805 5807 5809 5810 5813 5815 5816 5818 5820 5821 5823 5825 5828 5831 5833 5835 5836 5839 5840 5840 5841 5841 5841 5842 5844 5846 5848 5850 5851 5852 5853 5854 5856 5857 5859 5861 5861 5862 5863 5864 5865 5866 5867 5868 5869 5870 5871 5871 5871 5872 5873 5874 5876 5878 5879 5880 5883 5887 5887
5795 5796 5798 5800 5802 5804 5806 5807 5809 5812 5814 5816 5817 5819 5820 5822 5825 5828 5831 5832 5834 5836 5838 5838 5838 5840 5842 5841 5841 5843 5846 5847 5849 5851 5852 5853 5854 5856 5858 5859 5860 5861 5862 5863 5864 5864 5865 5866 5868 5868 5869 5869 5869 5869 5868 5870 5871 5873 5875 5877 5879 5881 5882
5793 5794 5795 5797 5799 5801 5802 5804 5806 5808 5810 5812 5814 5815 5817 5819 5821 5825 5828 5830 5832 5833 5835 5836 5835 5837 5839 5839 5838 5839 5842 5844 5846 5849 5851 5852 5853 5855 5856 5857 5858 5859 5860 5861 5862 5863 5863 5864 5865 5867 5868 5867 5867 5866 5865 5866 5867 5869 5871 5874 5876 5877 5878
5791 5792 5793 5794 5795 5797 5799 5801 5803 5805 5806 5808 5810 5813 5815 5817 5819 5821 5824 5827 5829 5830 5832 5833 5833 5834 5836 5836 5835 5836 5839 5842 5844 5847 5849 5850 5851 5852 5854 5855 5856 5856 5857 5858 5860 5861 5861 5862 5863 5865 5866 5865 5864 5865 5865 5865 5866 5866 5868 5870 5872 5874 5875
5790 5790 5790 5791 5792 5794 5795 5797 5799 5801 5803 5805 5807 5810 5813 5815 5817 5819 5821 5824 5826 5828 5829 5830 5831 5833 5834 5834 5833 5834 5837 5840 5842 5845 5847 5848 5849 5850 5852 5852 5853 5853 5853 5854 5856 5857 5858 5859 5861 5863 5865 5865 5864 5865 5865 5865 5865 5866 5867 5869 5870 5871 5872
5787 5788 5788 5789 5790 5791 5792 5794 5796 5797 5799 5802 5805 5807 5810 5812 5814 5816 5818 5821 5823 5825 5827 5828 5829 5830 5832 5833 5833 5834 5836 5838 5840 5842 5844 5845 5847 5849 5850 5850 5850 5851 5851 5852 5853 5854 5856 5857 5859 5861 5863 5865 5865 5863 5862 5862 5863 5864 5865 5867 5868 5869 5870
5785 5785 5785 5786 5786 5787 5789 5791 5792 5794 5796 5799 5802 5804 5806 5809 5811 5813 5816 5818 5821 5822 5824 5826 5827 5828 5829 5831 5833 5834 5835 5836 5838 5840 5842 5843 5845 5846 5847 5847 5847 5848 5849 5850 5852 5853 5854 5855 5856 5858 5861 5862 5862 5861 5860 5860 5861 5861 5862 5864 5866 5867 5869
5782 5782 5782 5783 5783 5784 5786 5787 5788 5790 5793 5796 5798 5800 5802 5805 5807 5810 5813 5816 5818 5820 5822 5823 5825 5826 5827 5829 5831 5832 5833 5834 5836 5838 5840 5841 5843 5844 5844 5844 5845 5846 5847 5848 5850 5851 5851 5853 5854 5855 5857 5858 5858 5858 5859 5859 5860 5860 5861 5864 5865 5866 5867
5779 5779 5780 5780 5780 5781 5782 5784 5785 5787 5790 5792 5794 5796 5798 5801 5804 5807 5810 5813 5816 5818 5819 5821 5823 5824 5825 5827 5829 5830 5831 5833 5835 5836 5838 5839 5841 5842 5842 5842 5843 5844 5844 5845 5847 5848 5848 5850 5851 5852 5853 5854 5855 5856 5857 5858 5858 5859 5860 5862 5864 5864 5865
5777 5777 5777 5777 5777 5778 5779 5781 5782 5784 5786 5788 5791 5793 5795 5798 5801 5804 5807 5810 5813 5815 5817 5819 5821 5822 5823 5824 5826 5828 5830 5831 5832 5834 5835 5837 5839 5840 5841 5841 5841 5841 5842 5843 5845 5845 5845 5846 5847 5848 5850 5851 5852 5854 5855 5855 5856 5857 5858 5859 5860 5862 5863
5774 5774 5774 5774 5774 5775 5776 5777 5779 5781 5782 5785 5787 5790 5792 5795 5797 5800 5804 5807 5809 5812 5814 5816 5818 5819 5821 5822 5824 5826 5828 5829 5830 5831 5833 5834 5836 5838 5839 5839 5839 5839 5840 5842 5843 5843 5843 5844 5844 5845 5847 5848 5849 5851 5852 5853 5854 5855 5855 5856 5857 5859 5860
5772 5772 5772 5771 5771 5772 5773 5774 5776 5778 5780 5782 5785 5787 5790 5792 5795 5798 5801 5803 5806 5808 5811 5813 5815 5816 5818 5820 5822 5824 5826 5827 5828 5829 5831 5832 5833 5834 5835 5836 5837 5837 5838 5839 5840 5841 5842 5842 5843 5843 5844 5845 5847 5848 5849 5851 5851 5852 5853 5854 5855 5856 5858
5769 5770 5769 5769 5768 5769 5770 5771 5772 5774 5777 5780 5782 5784 5786 5789 5792 5795 5798 5801 5802 5804 5806 5809 5811 5813 5815 5817 5819 5821 5822 5824 5826 5827 5829 5830 5831 5832 5833 5833 5834 5835 5835 5836 5837 5838 5839 5840 5841 5841 5842 5843 5844 5845 5847 5848 5849 5850 5850 5851 5852 5853 5855
5767 5767 5767 5766 5766 5766 5767 5768 5769 5772 5774 5776 5778 5781 5783 5786 5789 5792 5795 5798 5800 5800 5802 5805 5808 5810 5813 5814 5816 5817 5819 5820 5822 5824 5826 5828 5829 5829 5830 5831 5832 5832 5833 5833 5834 5835 5836 5837 5838 5839 5840 5840 5841 5842 5843 5845 5846 5847 5848 5849 5849 5850 5851
5765 5765 5764 5764 5764 5765 5765 5766 5767 5769 5771 5774 5776 5778 5779 5782 5786 5789 5791 5793 5796 5797 5798 5801 5804 5807 5809 5811 5813 5814 5815 5817 5818 5820 5822 5824 5825 5826 5827 5827 5828 5829 5830 5830 5831 5832 5833 5834 5835 5835 5836 5837 5838 5839 5840 5841 5842 5843 5844 5845 5846 5847 5847
5763 5763 5763 5763 5763 5763 5763 5764 5765 5767 5770 5772 5773 5774 5775 5779 5784 5786 5786 5786 5789 5792 5794 5797 5800 5803 5805 5806 5808 5810 5812 5813 5815 5816 5818 5820 5821 5822 5823 5823 5824 5825 5826 5827 5828 5829 5830 5831 5832 5833 5833 5834 5835 5835 5836 5837 5838 5839 5840 5841 5842 5842 5843
5762 5762 5762 5762 5762 5761 5761 5762 5763 5765 5767 5769 5770 5772 5774 5776 5780 5783 5782 5781 5782 5786 5790 5793 5796 5799 5801 5803 5804 5806 5808 5810 5811 5813 5814 5816 5817 5818 5819 5820 5821 5821 5822 5824 5825 5826 5828 5829 5830 5830 5831 5831 5831 5832 5832 5833 5834 5834 5835 5836 5837 5837 5838
5761 5761 5761 5761 5761 5761 5760 5761 5762 5764 5765 5766 5767 5770 5772 5773 5776 5779 5780 5780 5780 5782 5786 5790 5793 5796 5798 5800 5801 5803 5805 5807 5808 5810 5811 5813 5814 5815 5816 5817 5818 5819 5819 5820 5822 5823 5824 5825 5827 5828 5828 5828 5829 5829 5829 5830 5830 5830 5831 5831 5832 5832 5833
5761 5761 5761 5761 5761 5761 5761 5760 5761 5762 5764 5765 5766 5768 5770 5772 5774 5777 5779 5781 5781 5781 5784 5788 5791 5794 5796 5798 5799 5801 5803 5804 5806 5807 5809 5810 5812 5813 5813 5814 5815 5816 5817 5818 5819 5820 5821 5822 5823 5824 5825 5825 5826 5826 5827 5827 5827 5827 5827 5827 5828 5828 5828